Hourly Weather Seohara

Today, 29 November, Sunday

Time Temperature Precipitation Wind Pressure Humidity
00:00 +15°C° 0 mm 1 mps 743 mmHg 41%
01:00 +15°C° 0 mm 1 mps 743 mmHg 41%
02:00 +14°C° 0 mm 1 mps 742 mmHg 42%
03:00 +14°C° 0 mm 1 mps 742 mmHg 43%
04:00 +14°C° 0 mm 1 mps 743 mmHg 44%
05:00 +13°C° 0 mm 1 mps 743 mmHg 44%
06:00 +14°C° 0 mm 1 mps 743 mmHg 42%
07:00 +15°C° 0 mm 0 mps 744 mmHg 39%
08:00 +16°C° 0 mm 0 mps 745 mmHg 36%
09:00 +20°C° 0 mm 1 mps 744 mmHg 32%
10:00 +23°C° 0 mm 1 mps 744 mmHg 27%
11:00 +25°C° 0 mm 1 mps 744 mmHg 23%
12:00 +26°C° 0 mm 1 mps 744 mmHg 21%
13:00 +27°C° 0 mm 2 mps 743 mmHg 20%
14:00 +27°C° 0 mm 2 mps 742 mmHg 18%
15:00 +25°C° 0 mm 2 mps 742 mmHg 22%
16:00 +23°C° 0 mm 2 mps 742 mmHg 25%
17:00 +20°C° 0 mm 2 mps 742 mmHg 29%
18:00 +19°C° 0 mm 2 mps 742 mmHg 31%
19:00 +18°C° 0 mm 2 mps 742 mmHg 34%
20:00 +17°C° 0 mm 2 mps 742 mmHg 36%
21:00 +18°C° 0 mm 1 mps 742 mmHg 37%
22:00 +16°C° 0 mm 1 mps 743 mmHg 39%
23:00 +16°C° 0 mm 1 mps 743 mmHg 40%

Tomorrow, 30 November, Monday

Time Temperature Precipitation Wind Pressure Humidity
00:00 +15°C° 0 mm 1 mps 742 mmHg 41%
01:00 +15°C° 0 mm 1 mps 742 mmHg 42%
02:00 +14°C° 0 mm 1 mps 742 mmHg 43%
03:00 +14°C° 0 mm 1 mps 742 mmHg 43%
04:00 +14°C° 0 mm 1 mps 742 mmHg 44%
05:00 +14°C° 0 mm 1 mps 741 mmHg 45%
06:00 +15°C° 0 mm 1 mps 742 mmHg 43%
07:00 +16°C° 0 mm 1 mps 742 mmHg 40%
08:00 +16°C° 0 mm 0 mps 743 mmHg 38%
09:00 +21°C° 0 mm 1 mps 743 mmHg 33%
10:00 +23°C° 0 mm 1 mps 743 mmHg 28%
11:00 +26°C° 0 mm 1 mps 743 mmHg 24%
12:00 +27°C° 0 mm 1 mps 742 mmHg 22%
13:00 +27°C° 0 mm 2 mps 742 mmHg 20%
14:00 +28°C° 0 mm 2 mps 741 mmHg 18%
15:00 +26°C° 0 mm 2 mps 741 mmHg 21%
16:00 +24°C° 0 mm 2 mps 741 mmHg 23%
17:00 +21°C° 0 mm 2 mps 741 mmHg 26%
18:00 +20°C° 0 mm 2 mps 742 mmHg 29%
19:00 +20°C° 0 mm 1 mps 742 mmHg 31%
20:00 +19°C° 0 mm 1 mps 743 mmHg 34%
21:00 +18°C° 0 mm 1 mps 743 mmHg 36%
22:00 +18°C° 0 mm 1 mps 743 mmHg 38%
23:00 +16°C° 0 mm 1 mps 742 mmHg 41%

Day after tomorrow, 1 December, Tuesday

Time Temperature Precipitation Wind Pressure Humidity
00:00 +16°C° 0 mm 1 mps 742 mmHg 42%
01:00 +15°C° 0 mm 1 mps 742 mmHg 44%
02:00 +15°C° 0 mm 1 mps 742 mmHg 46%
03:00 +15°C° 0 mm 1 mps 742 mmHg 47%
04:00 +13°C° 0 mm 0 mps 742 mmHg 48%
05:00 +13°C° 0 mm 0 mps 742 mmHg 49%
06:00 +14°C° 0 mm 0 mps 742 mmHg 46%
07:00 +16°C° 0 mm 0 mps 743 mmHg 43%
08:00 +17°C° 0 mm 0 mps 744 mmHg 40%
09:00 +19°C° 0 mm 0 mps 744 mmHg 34%
10:00 +24°C° 0 mm 1 mps 744 mmHg 29%
11:00 +27°C° 0 mm 1 mps 744 mmHg 23%
12:00 +27°C° 0 mm 1 mps 743 mmHg 22%
13:00 +28°C° 0 mm 1 mps 742 mmHg 20%
14:00 +28°C° 0 mm 1 mps 742 mmHg 18%
15:00 +27°C° 0 mm 1 mps 742 mmHg 21%
16:00 +25°C° 0 mm 2 mps 742 mmHg 24%
17:00 +23°C° 0 mm 2 mps 742 mmHg 27%
18:00 +22°C° 0 mm 1 mps 742 mmHg 30%
19:00 +21°C° 0 mm 1 mps 742 mmHg 33%
20:00 +19°C° 0 mm 1 mps 742 mmHg 35%
21:00 +19°C° 0 mm 1 mps 742 mmHg 37%
22:00 +18°C° 0 mm 1 mps 742 mmHg 39%
23:00 +18°C° 0 mm 1 mps 742 mmHg 41%

2 December, Wednesday

Time Temperature Precipitation Wind Pressure Humidity
00:00 +16°C° 0 mm 1 mps 742 mmHg 42%
01:00 +16°C° 0 mm 1 mps 742 mmHg 43%
02:00 +14°C° 0 mm 0 mps 741 mmHg 44%
03:00 +14°C° 0 mm 0 mps 741 mmHg 45%
04:00 +14°C° 0 mm 0 mps 741 mmHg 46%
05:00 +13°C° 0 mm 0 mps 741 mmHg 47%
06:00 +15°C° 0 mm 0 mps 742 mmHg 45%
07:00 +16°C° 0 mm 0 mps 742 mmHg 42%
08:00 +17°C° 0 mm 0 mps 743 mmHg 39%
09:00 +19°C° 0 mm 0 mps 742 mmHg 34%
10:00 +24°C° 0 mm 1 mps 742 mmHg 29%
11:00 +26°C° 0 mm 1 mps 742 mmHg 24%
12:00 +27°C° 0 mm 2 mps 741 mmHg 22%
13:00 +28°C° 0 mm 3 mps 741 mmHg 19%
14:00 +29°C° 0 mm 3 mps 740 mmHg 17%
15:00 +27°C° 0 mm 3 mps 740 mmHg 20%
16:00 +24°C° 0 mm 2 mps 739 mmHg 23%
17:00 +21°C° 0 mm 2 mps 739 mmHg 27%
18:00 +20°C° 0 mm 2 mps 740 mmHg 30%
19:00 +20°C° 0 mm 1 mps 740 mmHg 34%
20:00 +19°C° 0 mm 1 mps 740 mmHg 37%
21:00 +18°C° 0 mm 1 mps 740 mmHg 39%
22:00 +18°C° 0 mm 1 mps 740 mmHg 42%
23:00 +16°C° 0 mm 1 mps 740 mmHg 44%

3 December, Thursday

Time Temperature Precipitation Wind Pressure Humidity
00:00 +16°C° 0 mm 1 mps 739 mmHg 45%
01:00 +15°C° 0 mm 1 mps 739 mmHg 47%
02:00 +15°C° 0 mm 1 mps 739 mmHg 49%
03:00 +14°C° 0 mm 1 mps 739 mmHg 50%
04:00 +14°C° 0 mm 1 mps 739 mmHg 51%
05:00 +14°C° 0 mm 1 mps 739 mmHg 52%
06:00 +15°C° 0 mm 1 mps 740 mmHg 50%
07:00 +16°C° 0 mm 1 mps 741 mmHg 48%
08:00 +17°C° 0 mm 2 mps 741 mmHg 45%
09:00 +19°C° 0 mm 2 mps 741 mmHg 39%
10:00 +23°C° 0 mm 2 mps 741 mmHg 33%
11:00 +25°C° 0 mm 2 mps 741 mmHg 27%
12:00 +26°C° 0 mm 2 mps 741 mmHg 25%
13:00 +27°C° 0 mm 2 mps 740 mmHg 23%
14:00 +28°C° 0 mm 2 mps 740 mmHg 21%
15:00 +26°C° 0 mm 1 mps 740 mmHg 24%
16:00 +24°C° 0 mm 1 mps 740 mmHg 27%
17:00 +22°C° 0 mm 1 mps 740 mmHg 30%
18:00 +21°C° 0 mm 1 mps 740 mmHg 34%
19:00 +20°C° 0 mm 1 mps 741 mmHg 38%
20:00 +18°C° 0 mm 2 mps 741 mmHg 41%
21:00 +17°C° 0 mm 2 mps 741 mmHg 44%
22:00 +17°C° 0 mm 2 mps 741 mmHg 47%
23:00 +16°C° 0 mm 2 mps 741 mmHg 50%

4 December, Friday

Time Temperature Precipitation Wind Pressure Humidity
00:00 +16°C° 0 mm 1 mps 740 mmHg 51%
01:00 +15°C° 0 mm 1 mps 740 mmHg 52%
02:00 +15°C° 0 mm 1 mps 740 mmHg 54%
03:00 +15°C° 0 mm 1 mps 740 mmHg 54%
04:00 +14°C° 0 mm 1 mps 740 mmHg 55%
05:00 +14°C° 0 mm 1 mps 740 mmHg 56%
06:00 +15°C° 0 mm 1 mps 741 mmHg 53%
07:00 +16°C° 0 mm 1 mps 741 mmHg 50%
08:00 +17°C° 0 mm 2 mps 742 mmHg 46%
09:00 +20°C° 0 mm 2 mps 742 mmHg 40%
10:00 +23°C° 0 mm 2 mps 742 mmHg 33%
11:00 +26°C° 0 mm 3 mps 742 mmHg 27%
12:00 +26°C° 0 mm 2 mps 741 mmHg 25%
13:00 +27°C° 0 mm 2 mps 741 mmHg 23%
14:00 +28°C° 0 mm 2 mps 740 mmHg 21%
15:00 +26°C° 0 mm 1 mps 740 mmHg 24%
16:00 +24°C° 0 mm 1 mps 740 mmHg 27%
17:00 +22°C° 0 mm 1 mps 740 mmHg 30%
18:00 +21°C° 0 mm 1 mps 740 mmHg 33%
19:00 +20°C° 0 mm 1 mps 741 mmHg 36%
20:00 +19°C° 0 mm 1 mps 741 mmHg 39%
21:00 +18°C° 0 mm 1 mps 741 mmHg 42%
22:00 +18°C° 0 mm 1 mps 741 mmHg 44%
23:00 +16°C° 0 mm 1 mps 741 mmHg 47%
Show more